Flag for Netherlands Weather past 2 weeks in Kralendijk (Bonaire), Netherlands

Now
84 °F

Scattered clouds.


Feels Like: 92 °F
Forecast: N/A
Wind: 12 mph from East

Location: Flamingo Airport - Bonaire

Current Time: Oct 22, 2014 at 6:47:47 PM

Latest Report: Oct 22, 2014 at 6:00 PM


Visibility: N/A

Pressure: 29.80 "Hg

Humidity: 74%

Dew point: 75 °F

Location of Kralendijk (Bonaire)Location

Historic Weather in Kralendijk (Bonaire) — Graph

°F

Kralendijk (Bonaire) temperature yesterday

Maximum temperature yesterday: 90 °F (at 11:00 AM)
Minimum temperature yesterday: 82 °F (at 2:00 AM)
Average temperature yesterday: 86 °F

Past Weeks' High & Low Weather Summary

 TemperatureHumidityPressure
High91 °F (Oct 13, 1:00 PM)89% (Oct 9, 7:00 AM)29.95 "Hg (Oct 9, 7:00 AM)
Low79 °F (Oct 9, 7:00 AM)59% (Oct 9, 4:00 PM)29.74 "Hg (Oct 8, 5:00 PM)
Average85 °F74%29.85 "Hg
* Reported Oct 7 5:00 PM — Oct 22 5:00 PM, Kralendijk (Bonaire), Weather by CustomWeather, © 2014

Note: Actual official high and low records may vary slightly from our data, if they occured in-between our weather recording intervals... More about our weather records

Advertising

Kralendijk (Bonaire) weather history for previous 24 hours

 ConditionsComfort  
Time TempWeatherWind HumidityBarometerVisibility
5:00 PM
Oct 22
88 °FScattered clouds.13 mph70%29.80 "HgN/A
4:00 PM88 °FScattered clouds.13 mph66%29.80 "HgN/A
3:00 PM90 °FScattered clouds.13 mph63%29.80 "HgN/A
2:00 PM90 °FScattered clouds.15 mph63%29.86 "HgN/A
1:00 PM90 °FHot.16 mph67%29.89 "HgN/A
12:00 PM91 °FHot.14 mph63%29.89 "HgN/A
11:00 AM88 °FWarm.16 mph66%29.92 "HgN/A
8:00 AM86 °FWarm.N/A75%29.92 "HgN/A
7:00 AMN/A10 mphN/AN/AN/A
6:00 AM82 °FWarm.10 mph79%29.86 "HgN/A
5:00 AM82 °FWarm.10 mph79%29.83 "HgN/A
4:00 AM82 °FWarm.12 mph84%29.86 "HgN/A
3:00 AM82 °FWarm.14 mph79%29.86 "HgN/A
2:00 AM82 °FWarm.14 mph79%29.86 "HgN/A
1:00 AMN/A13 mphN/AN/AN/A
12:00 AM82 °FWarm.15 mph84%29.89 "HgN/A
11:00 PM
Oct 21
82 °FWarm.15 mph84%29.89 "HgN/A
10:00 PM84 °FWarm.15 mph79%29.89 "HgN/A
9:00 PM84 °FWarm.N/A79%29.83 "HgN/A
8:00 PM84 °FWarm.14 mph79%29.83 "HgN/A
6:00 PM84 °FWarm.14 mph74%29.80 "HgN/A
Weather by CustomWeather, © 2014

See weather overviewHow to use our weather pages